period_start,C,m1,H,J0,J1,J2,J3,J4,J5,JA,JB,JC,JD,JJ,JK,JN,#
2015-10-07 00:00:38,0.03,0.01,0.00,21.47,27.00,30.24,14.74,47.02,1016.62,2039.05,3631.05,3296.00,3589.14,600.10,599.23,0.58,0000 0000 0000 0000 000000
2015-10-07 00:05:39,0.03,0.01,0.00,21.45,27.00,30.29,14.66,46.97,1016.62,2039.05,3630.18,3295.58,3588.71,599.74,598.82,0.63,0000 0000 0000 0000 000000
2015-10-07 00:10:40,0.02,0.01,0.00,21.44,27.00,30.35,14.73,47.05,1016.62,2039.04,3629.60,3295.02,3588.01,600.21,599.42,0.68,0000 0000 0000 0000 000000
2015-10-07 00:15:41,0.02,0.02,0.00,21.44,27.01,30.38,14.67,47.04,1016.62,2039.02,3628.84,3294.83,3587.51,599.91,599.15,0.73,0000 0000 0000 0000 000000
2015-10-07 00:20:43,0.03,0.02,0.00,21.53,27.02,30.27,14.71,47.18,1016.62,2039.01,3627.96,3294.05,3586.89,600.06,599.05,0.79,0000 0000 0000 0000 000000
2015-10-07 00:25:44,0.03,0.02,0.00,21.90,27.03,30.12,14.69,47.02,1016.62,2039.01,3627.07,3293.82,3586.06,600.16,598.42,0.84,0000 0000 0000 0000 000000
2015-10-07 00:30:45,0.04,0.02,0.00,21.93,27.05,30.15,14.61,46.97,1016.63,2039.00,3626.17,3293.04,3585.26,600.28,598.49,0.89,0000 0000 0000 0000 000000
2015-10-07 00:35:46,0.04,0.02,0.00,21.78,27.07,30.19,14.66,46.98,1016.63,2039.00,3625.17,3292.43,3584.54,599.95,598.44,0.94,0000 0000 0000 0000 000000
2015-10-07 00:40:48,0.02,0.02,0.00,21.73,27.08,30.24,14.63,47.06,1016.63,2038.99,3624.41,3292.00,3583.98,599.89,598.47,0.99,0000 0000 0000 0000 000000
2015-10-07 00:45:49,0.04,0.03,0.00,21.70,27.10,30.26,14.66,46.99,1016.63,2038.98,3623.59,3291.62,3583.20,600.15,598.86,1.04,0000 0000 0000 0000 000000
2015-10-07 00:50:51,0.02,0.03,0.00,21.67,27.10,30.30,14.62,47.02,1016.65,2038.97,3622.66,3291.02,3582.84,600.00,598.66,1.09,0000 0000 0000 0000 000000
2015-10-07 00:55:52,0.03,0.03,0.00,21.78,27.12,30.27,14.69,47.17,1016.68,2038.94,3621.84,3290.54,3582.04,600.46,598.90,1.14,0000 0000 0000 0000 000000
2015-10-07 01:00:53,0.02,0.03,0.00,22.13,27.14,30.16,14.62,46.76,1016.78,2038.88,3620.97,3290.01,3581.43,600.49,598.39,1.19,0000 0000 0000 0000 000000
2015-10-07 01:05:54,0.03,0.03,0.00,22.09,27.16,30.20,14.63,46.93,1016.83,2038.74,3620.07,3289.39,3580.72,599.81,597.85,1.24,0000 0000 0000 0000 000000
2015-10-07 01:10:55,-0.01,0.03,0.00,21.97,27.18,30.26,14.63,46.87,1017.02,2038.48,3619.19,3289.00,3580.01,600.12,598.51,1.29,0000 0000 0000 0000 000000
2015-10-07 01:15:56,0.03,0.03,0.00,21.90,27.20,30.31,14.67,46.98,1017.10,2038.14,3618.20,3288.31,3579.24,599.74,598.30,1.34,0000 0000 0000 0000 000000
2015-10-07 01:20:58,0.02,0.03,0.00,21.85,27.21,30.35,14.63,46.99,1017.10,2038.09,3617.31,3287.98,3578.65,600.02,598.73,1.39,0000 0000 0000 0000 000000
2015-10-07 01:25:59,0.03,0.04,0.00,21.91,27.22,30.35,14.65,47.10,1017.10,2038.04,3616.57,3287.36,3577.99,600.26,598.87,1.44,0000 0000 0000 0000 000000
2015-10-07 01:31:00,0.02,0.04,0.00,22.22,27.25,30.27,14.71,46.92,1017.12,2038.02,3615.83,3287.00,3577.21,600.59,598.51,1.49,0000 0000 0000 0000 000000
2015-10-07 01:36:02,0.04,0.04,0.00,22.36,27.27,30.28,14.52,46.69,1017.13,2038.01,3614.91,3286.36,3576.56,599.90,597.50,1.54,0000 0000 0000 0000 000000
2015-10-07 01:41:03,0.05,0.04,0.00,22.21,27.29,30.33,14.54,46.87,1017.15,2038.00,3613.63,3285.67,3575.71,599.84,597.79,1.59,0000 0000 0000 0000 000000
2015-10-07 01:46:05,0.03,0.04,0.00,22.10,27.31,30.39,14.56,46.97,1017.16,2038.00,3612.34,3285.01,3574.90,599.43,597.61,1.64,0000 0000 0000 0000 000000
2015-10-07 01:51:06,0.03,0.05,0.00,22.07,27.32,30.41,14.67,47.14,1017.13,2037.99,3611.58,3284.55,3574.08,600.38,598.62,1.69,0000 0000 0000 0000 000000
2015-10-07 01:56:07,0.03,0.05,0.00,22.17,27.33,30.38,14.59,47.09,1017.12,2037.99,3610.71,3284.00,3573.53,600.02,598.04,1.74,0000 0000 0000 0000 000000
2015-10-07 02:01:08,0.03,0.05,0.00,22.47,27.35,30.32,14.54,46.98,1017.13,2037.97,3609.85,3283.40,3572.82,600.28,597.63,1.79,0000 0000 0000 0000 000000
2015-10-07 02:06:09,0.02,0.05,0.00,22.48,27.37,30.38,14.55,47.08,1017.12,2037.94,3609.01,3283.00,3572.06,600.14,597.47,1.84,0000 0000 0000 0000 000000
2015-10-07 02:11:10,0.02,0.05,0.00,22.32,27.40,30.44,14.61,47.17,1017.13,2037.72,3608.11,3282.39,3571.34,600.02,597.68,1.89,0000 0000 0000 0000 000000
2015-10-07 02:16:12,0.02,0.05,0.00,22.23,27.40,30.45,14.57,47.20,1017.18,2037.51,3607.12,3282.00,3570.72,600.04,597.83,1.94,0000 0000 0000 0000 000000
2015-10-07 02:21:13,0.01,0.05,0.00,22.40,27.42,30.41,14.61,47.24,1017.26,2037.23,3606.28,3281.36,3570.01,600.16,597.79,1.99,0000 0000 0000 0000 000000
2015-10-07 02:26:14,0.02,0.05,0.00,22.62,27.44,30.39,14.54,47.13,1017.27,2037.07,3605.46,3280.96,3569.19,599.94,597.10,2.04,0000 0000 0000 0000 000000
2015-10-07 02:31:16,0.04,0.06,0.00,22.54,27.46,30.45,14.55,47.23,1017.21,2037.04,3604.58,3280.24,3568.61,600.05,597.47,2.09,0000 0000 0000 0000 000000
2015-10-07 02:36:17,0.02,0.06,0.00,22.49,27.47,30.46,14.73,47.23,1017.28,2037.00,3603.63,3279.96,3567.93,600.06,597.48,2.14,0000 0000 0000 0000 000000
2015-10-07 02:41:18,0.04,0.06,0.00,22.69,27.50,30.40,14.62,47.20,1017.32,2037.00,3602.78,3279.20,3567.13,600.29,597.33,2.19,0000 0000 0000 0000 000000
2015-10-07 02:46:19,0.02,0.06,0.00,22.66,27.51,30.44,14.58,47.22,1017.39,2037.00,3601.93,3278.95,3566.39,600.14,597.27,2.24,0000 0000 0000 0000 000000
2015-10-07 02:51:20,0.04,0.06,0.00,22.61,27.53,30.48,14.62,47.20,1017.45,2037.00,3601.00,3278.13,3565.76,600.46,597.78,2.29,0000 0000 0000 0000 000000
2015-10-07 02:56:21,0.02,0.07,0.00,22.79,27.55,30.42,14.53,47.07,1017.53,2037.00,3600.07,3277.88,3565.01,600.11,597.01,2.34,0000 0000 0000 0000 000000
2015-10-07 03:01:23,0.04,0.07,0.00,22.71,27.56,30.49,14.56,47.14,1017.55,2036.99,3599.13,3277.07,3564.15,599.88,597.05,2.39,0000 0000 0000 0000 000000
2015-10-07 03:06:24,0.03,0.07,0.00,22.73,27.58,30.50,14.55,47.21,1017.54,2036.97,3598.17,3276.65,3563.55,600.25,597.41,2.44,0000 0000 0000 0000 000000
2015-10-07 03:11:25,0.02,0.07,0.00,22.85,27.60,30.48,14.52,47.13,1017.46,2036.94,3597.27,3276.02,3562.85,599.76,596.46,2.49,0000 0000 0000 0000 000000
2015-10-07 03:16:27,0.03,0.07,0.00,22.77,27.61,30.51,14.59,47.17,1017.48,2036.81,3596.33,3275.43,3562.05,599.95,596.97,2.54,0000 0000 0000 0000 000000
2015-10-07 03:21:28,0.01,0.07,0.00,22.94,27.62,30.48,14.60,47.13,1017.54,2036.71,3595.48,3275.00,3561.33,600.32,596.94,2.59,0000 0000 0000 0000 000000
2015-10-07 03:26:30,0.01,0.07,0.00,22.90,27.65,30.53,14.58,46.96,1017.50,2036.39,3594.62,3274.35,3560.76,600.12,596.94,2.64,0000 0000 0000 0000 000000
2015-10-07 03:31:31,0.01,0.07,0.00,22.98,27.66,30.52,14.66,47.06,1017.54,2036.18,3593.81,3273.99,3560.03,600.48,597.10,2.69,0000 0000 0000 0000 000000
2015-10-07 03:36:33,0.03,0.08,0.00,22.89,27.67,30.56,14.56,46.98,1017.58,2036.13,3592.92,3273.45,3559.35,599.95,596.77,2.74,0000 0000 0000 0000 000000
2015-10-07 03:41:34,0.02,0.08,0.00,22.96,27.68,30.54,14.63,47.08,1017.59,2036.07,3592.01,3272.99,3558.71,600.47,597.16,2.79,0000 0000 0000 0000 000000
2015-10-07 03:46:35,0.04,0.08,0.00,22.99,27.70,30.56,14.60,46.92,1017.59,2036.03,3591.10,3272.36,3558.02,600.28,596.96,2.84,0000 0000 0000 0000 000000
2015-10-07 03:51:36,0.03,0.08,0.00,22.95,27.70,30.57,14.47,46.90,1017.59,2036.02,3590.23,3271.98,3557.32,600.03,596.73,2.89,0000 0000 0000 0000 000000
2015-10-07 03:56:37,0.04,0.08,0.00,23.09,27.72,30.55,14.58,47.03,1017.59,2036.01,3589.36,3271.42,3556.73,600.07,596.49,2.94,0000 0000 0000 0000 000000
2015-10-07 04:01:38,0.03,0.08,0.00,23.00,27.72,30.60,14.49,46.92,1017.59,2036.00,3588.40,3270.92,3555.93,600.13,596.79,2.99,0000 0000 0000 0000 000000
2015-10-07 04:06:40,0.05,0.09,0.00,23.03,27.75,30.59,14.47,47.02,1017.60,2036.00,3587.47,3270.11,3555.09,600.07,596.51,3.04,0000 0000 0000 0000 000000
2015-10-07 04:11:41,0.03,0.09,0.00,23.08,27.75,30.62,14.60,46.92,1017.62,2036.00,3586.55,3269.83,3554.42,600.07,596.60,3.09,0000 0000 0000 0000 000000
2015-10-07 04:16:42,0.03,0.09,0.00,22.97,27.76,30.63,14.51,46.97,1017.63,2036.00,3585.69,3269.09,3553.93,599.87,596.57,3.15,0000 0000 0000 0000 000000
2015-10-07 04:21:44,0.02,0.09,0.00,23.12,27.77,30.61,14.59,47.03,1017.84,2036.00,3584.75,3268.87,3553.12,600.13,596.72,3.20,0000 0000 0000 0000 000000
2015-10-07 04:26:45,0.04,0.09,0.00,23.04,27.78,30.65,14.53,46.96,1018.03,2035.99,3583.94,3268.11,3552.43,600.05,596.81,3.25,0000 0000 0000 0000 000000
2015-10-07 04:31:46,0.01,0.10,0.00,23.03,27.80,30.63,14.68,47.01,1018.07,2035.97,3583.08,3267.94,3551.98,600.00,596.85,3.30,0000 0000 0000 0000 000000
2015-10-07 04:36:47,0.04,0.10,0.00,23.12,27.80,30.65,14.64,47.08,1018.07,2035.98,3582.34,3267.18,3551.18,600.20,596.84,3.35,0000 0000 0000 0000 000000
2015-10-07 04:41:48,0.02,0.10,0.00,23.14,27.81,30.66,14.54,47.05,1018.07,2035.98,3581.63,3266.96,3550.49,599.91,596.69,3.40,0000 0000 0000 0000 000000
2015-10-07 04:46:49,0.04,0.10,0.00,23.15,27.82,30.64,14.51,47.07,1018.08,2035.96,3580.66,3266.19,3549.89,600.13,596.66,3.45,0000 0000 0000 0000 000000
2015-10-07 04:51:51,0.02,0.10,0.00,23.24,27.82,30.64,14.48,46.98,1018.08,2035.94,3579.82,3265.94,3549.07,599.92,596.57,3.50,0000 0000 0000 0000 000000
2015-10-07 04:56:52,0.04,0.10,0.00,23.10,27.82,30.69,14.50,47.03,1018.08,2035.90,3578.91,3265.19,3548.42,599.94,596.67,3.55,0000 0000 0000 0000 000000
2015-10-07 05:01:53,0.01,0.11,0.00,23.00,27.83,30.67,14.60,47.12,1018.09,2035.73,3577.87,3264.79,3547.76,600.25,597.12,3.60,0000 0000 0000 0000 000000
2015-10-07 05:06:54,0.01,0.11,0.00,23.16,27.84,30.67,14.50,47.12,1018.11,2035.40,3576.99,3264.04,3547.02,599.97,596.70,3.65,0000 0000 0000 0000 000000
2015-10-07 05:11:55,0.02,0.11,0.00,23.11,27.85,30.68,14.48,47.10,1018.31,2035.33,3576.11,3263.91,3546.35,599.76,596.43,3.70,0000 0000 0000 0000 000000
2015-10-07 05:16:57,0.03,0.11,0.00,23.04,27.85,30.64,14.64,47.08,1018.54,2035.21,3575.19,3263.10,3545.76,600.29,597.37,3.75,0000 0000 0000 0000 000000
2015-10-07 05:21:58,0.01,0.11,0.00,23.16,27.85,30.65,14.55,46.98,1018.57,2035.10,3574.51,3262.98,3545.01,599.99,596.96,3.80,0000 0000 0000 0000 000000
2015-10-07 05:26:59,0.03,0.11,0.00,23.22,27.86,30.64,14.52,47.01,1018.57,2035.08,3573.86,3262.53,3544.39,600.43,597.27,3.85,0000 0000 0000 0000 000000
2015-10-07 05:32:00,0.02,0.11,0.00,23.21,27.87,30.65,14.52,47.13,1018.58,2035.04,3572.91,3262.01,3543.84,599.63,596.26,3.90,0000 0000 0000 0000 000000
2015-10-07 05:37:01,0.04,0.11,0.00,23.21,27.87,30.66,14.51,47.02,1018.58,2035.01,3572.04,3261.47,3543.07,600.11,596.85,3.95,0000 0000 0000 0000 000000
2015-10-07 05:42:03,0.02,0.12,0.00,23.27,27.87,30.66,14.50,46.98,1018.62,2035.00,3571.16,3261.00,3542.45,600.13,596.83,4.00,0000 0000 0000 0000 000000
2015-10-07 05:47:05,0.04,0.12,0.00,23.19,27.87,30.65,14.55,47.09,1018.69,2035.02,3570.21,3260.54,3541.89,599.97,596.84,4.05,0000 0000 0000 0000 000000
2015-10-07 05:52:06,0.02,0.12,0.00,23.32,27.89,30.67,14.52,46.95,1018.73,2035.01,3569.53,3260.01,3541.09,599.91,596.49,4.10,0000 0000 0000 0000 000000
2015-10-07 05:57:07,0.04,0.12,0.00,23.18,27.90,30.68,14.52,46.92,1018.79,2035.00,3568.61,3259.55,3540.55,600.03,597.02,4.15,0000 0000 0000 0000 000000
2015-10-07 06:02:08,0.02,0.12,0.00,23.14,27.90,30.67,14.56,47.07,1018.88,2035.00,3567.75,3259.00,3539.90,600.28,597.30,4.20,0000 0000 0000 0000 000000
2015-10-07 06:07:10,0.03,0.12,0.00,23.25,27.90,30.66,14.52,47.02,1019.02,2035.00,3566.92,3258.66,3539.12,600.37,597.21,4.25,0000 0000 0000 0000 000000
2015-10-07 06:12:11,0.03,0.13,0.00,23.14,27.90,30.69,14.58,47.10,1019.06,2035.00,3566.04,3258.01,3538.56,599.78,596.90,4.30,0000 0000 0000 0000 000000
2015-10-07 06:17:12,0.03,0.13,0.00,23.25,27.92,30.68,14.59,47.19,1019.06,2035.00,3565.19,3257.55,3537.99,599.90,596.85,4.35,0000 0000 0000 0000 000000
2015-10-07 06:22:13,0.03,0.13,0.00,23.21,27.92,30.70,14.54,47.08,1019.06,2035.00,3564.42,3257.03,3537.23,600.01,597.05,4.40,0000 0000 0000 0000 000000
2015-10-07 06:27:15,0.01,0.13,0.00,23.23,27.92,30.70,14.58,47.14,1019.07,2034.99,3563.72,3256.82,3536.87,600.05,597.01,4.45,0000 0000 0000 0000 000000
2015-10-07 06:32:16,0.04,0.13,0.00,23.22,27.92,30.72,14.59,47.16,1019.09,2034.99,3562.96,3256.06,3536.06,599.90,596.85,4.50,0000 0000 0000 0000 000000
2015-10-07 06:37:18,0.02,0.13,0.00,23.22,27.92,30.69,14.55,47.18,1019.11,2034.97,3562.08,3255.94,3535.64,599.93,597.07,4.55,0000 0000 0000 0000 000000
2015-10-07 06:42:19,0.03,0.13,0.00,23.29,27.92,30.71,14.53,47.08,1019.25,2034.95,3561.51,3255.20,3535.01,600.24,597.27,4.60,0000 0000 0000 0000 000000
2015-10-07 06:47:20,0.01,0.14,0.00,23.19,27.92,30.70,14.54,47.22,1019.37,2034.93,3560.86,3254.99,3534.38,599.89,597.16,4.65,0000 0000 0000 0000 000000
2015-10-07 06:52:21,0.03,0.14,0.00,23.30,27.92,30.70,14.53,47.05,1019.49,2034.89,3560.05,3254.51,3533.94,599.96,597.08,4.70,0000 0000 0000 0000 000000
2015-10-07 06:57:23,0.05,0.14,0.00,23.32,27.93,30.72,14.49,47.20,1019.54,2034.83,3558.71,3253.79,3533.08,599.81,596.98,4.75,0000 0000 0000 0000 000000
2015-10-07 07:02:24,0.04,0.14,0.00,23.23,27.92,30.70,14.58,47.19,1019.55,2034.82,3557.33,3253.04,3532.17,600.18,597.50,4.80,0000 0000 0000 0000 000000
2015-10-07 07:07:25,0.04,0.14,0.00,23.30,27.92,30.71,14.57,47.17,1019.55,2034.69,3556.17,3252.38,3531.46,599.52,596.61,4.85,0000 0000 0000 0000 000000
2015-10-07 07:12:26,0.01,0.15,0.00,23.24,27.92,30.71,14.51,47.17,1019.55,2034.52,3555.11,3251.95,3530.69,599.37,596.62,4.90,0000 0000 0000 0000 000000
2015-10-07 07:17:28,0.03,0.15,0.00,23.34,27.92,30.70,14.49,47.08,1019.55,2034.39,3554.10,3251.16,3530.02,599.79,596.88,4.95,0000 0000 0000 0000 000000
2015-10-07 07:22:29,0.03,0.15,0.00,23.25,27.92,30.72,14.52,47.17,1019.55,2034.33,3553.17,3250.98,3529.35,599.85,597.25,5.00,0000 0000 0000 0000 000000
2015-10-07 07:27:30,0.04,0.15,0.00,23.32,27.92,30.72,14.49,47.09,1019.56,2034.55,3552.45,3250.35,3528.97,600.13,597.23,5.05,0000 0000 0000 0000 000000
2015-10-07 07:32:31,0.02,0.15,0.00,23.38,27.91,30.73,14.56,47.08,1019.55,2034.37,3551.48,3249.99,3528.23,599.99,596.95,5.10,0000 0000 0000 0000 000000
2015-10-07 07:37:32,0.02,0.15,0.00,23.37,27.90,30.72,14.48,46.95,1019.57,2034.42,3550.81,3249.50,3527.97,599.82,596.85,5.15,0000 0000 0000 0000 000000
2015-10-07 07:42:34,0.02,0.15,0.00,23.28,27.90,30.69,14.48,46.91,1019.76,2034.33,3550.03,3249.03,3527.22,599.60,596.92,5.20,0000 0000 0000 0000 000000
2015-10-07 07:47:35,0.02,0.16,0.00,23.37,27.90,30.71,14.48,46.83,1019.91,2034.24,3549.27,3248.86,3526.81,599.80,597.17,5.25,0000 0000 0000 0000 000000
2015-10-07 07:52:36,0.04,0.16,0.00,23.28,27.88,30.69,14.55,46.88,1019.99,2034.27,3548.51,3248.14,3526.07,599.74,597.20,5.30,0000 0000 0000 0000 000000
2015-10-07 07:57:38,0.02,0.16,0.00,23.31,27.87,30.70,14.54,46.77,1020.02,2034.40,3547.97,3248.00,3525.99,599.88,597.35,5.35,0000 0000 0000 0000 000000
2015-10-07 08:02:39,0.02,0.16,0.00,23.15,27.87,30.74,14.48,46.91,1020.03,2034.38,3547.15,3247.76,3525.33,599.75,597.61,5.40,0000 0000 0000 0000 000000
2015-10-07 08:07:40,0.01,0.16,0.00,23.06,27.85,30.68,14.52,46.82,1020.04,2034.29,3546.48,3247.09,3524.99,600.04,598.06,5.45,0000 0000 0000 0000 000000
2015-10-07 08:12:41,0.05,0.16,0.00,23.20,27.85,30.67,14.56,46.77,1020.04,2034.69,3545.99,3247.00,3524.60,600.17,597.81,5.50,0000 0000 0000 0000 000000
2015-10-07 08:17:43,0.03,0.17,0.00,23.09,27.84,30.70,14.54,46.98,1020.05,2034.86,3545.43,3246.95,3524.04,599.79,597.65,5.56,0000 0000 0000 0000 000000
2015-10-07 08:22:44,0.02,0.17,0.00,22.90,27.82,30.73,14.64,47.01,1020.05,2034.88,3544.79,3246.32,3523.97,600.15,598.25,5.61,0000 0000 0000 0000 000000
2015-10-07 08:27:45,0.03,0.17,0.00,23.01,27.82,30.68,14.60,47.01,1020.06,2034.93,3544.04,3246.01,3523.22,599.95,598.05,5.66,0000 0000 0000 0000 000000
2015-10-07 08:32:46,0.02,0.17,0.00,23.06,27.81,30.69,14.52,46.90,1020.15,2034.94,3543.36,3245.83,3523.00,599.90,597.95,5.71,0000 0000 0000 0000 000000
2015-10-07 08:37:47,0.04,0.17,0.00,22.92,27.80,30.69,14.59,46.91,1020.32,2034.95,3542.65,3245.09,3522.37,600.02,598.44,5.76,0000 0000 0000 0000 000000
2015-10-07 08:42:49,0.01,0.17,0.00,23.05,27.80,30.67,14.52,46.88,1020.48,2034.97,3541.99,3245.00,3522.01,599.56,597.69,5.81,0000 0000 0000 0000 000000
2015-10-07 08:47:50,0.03,0.17,0.00,22.96,27.79,30.69,14.60,46.89,1020.51,2034.98,3541.41,3244.70,3521.56,599.96,598.29,5.86,0000 0000 0000 0000 000000
2015-10-07 08:52:51,0.02,0.18,0.00,22.82,27.77,30.72,14.60,47.02,1020.52,2034.96,3540.83,3244.05,3521.02,600.16,598.82,5.91,0000 0000 0000 0000 000000
2015-10-07 08:57:52,0.02,0.18,0.00,22.96,27.77,30.66,14.56,46.83,1020.52,2034.96,3540.08,3243.99,3520.56,599.87,598.24,5.96,0000 0000 0000 0000 000000
2015-10-07 09:02:54,0.01,0.18,0.00,22.94,27.77,30.67,14.62,46.93,1020.52,2034.97,3539.61,3243.78,3520.02,600.01,598.47,6.01,0000 0000 0000 0000 000000
2015-10-07 09:07:55,0.04,0.18,0.00,22.77,27.75,30.68,14.61,47.02,1020.52,2034.98,3538.64,3243.06,3519.76,599.96,598.55,6.06,0000 0000 0000 0000 000000
2015-10-07 09:12:56,0.03,0.18,0.00,22.91,27.75,30.65,14.62,47.00,1020.53,2034.99,3537.87,3242.75,3519.04,600.19,598.76,6.11,0000 0000 0000 0000 000000
2015-10-07 09:17:58,0.02,0.18,0.00,22.88,27.74,30.68,14.62,46.96,1020.53,2034.98,3537.07,3242.05,3518.89,599.96,598.51,6.16,0000 0000 0000 0000 000000
2015-10-07 09:22:59,0.02,0.18,0.00,22.69,27.72,30.73,14.63,47.03,1020.53,2034.99,3536.20,3241.95,3518.12,600.12,599.22,6.21,0000 0000 0000 0000 000000
2015-10-07 09:28:00,0.04,0.19,0.00,22.72,27.72,30.67,14.63,47.07,1020.55,2034.96,3535.47,3241.16,3517.53,600.07,598.87,6.26,0000 0000 0000 0000 000000
2015-10-07 09:33:02,0.01,0.19,0.00,22.87,27.70,30.66,14.62,46.91,1020.68,2034.98,3534.67,3240.99,3517.01,600.22,598.85,6.31,0000 0000 0000 0000 000000
2015-10-07 09:38:03,0.02,0.19,0.00,22.71,27.70,30.64,14.59,46.94,1020.93,2034.99,3533.86,3240.57,3516.96,600.00,599.15,6.36,0000 0000 0000 0000 000000
2015-10-07 09:43:04,0.03,0.19,0.00,22.71,27.70,30.66,14.60,47.03,1020.98,2034.99,3533.06,3240.03,3516.20,599.72,598.89,6.41,0000 0000 0000 0000 000000
2015-10-07 09:48:06,0.01,0.19,0.00,22.79,27.68,30.62,14.60,46.98,1021.01,2034.99,3532.67,3239.98,3516.00,599.86,598.93,6.46,0000 0000 0000 0000 000000
2015-10-07 09:53:07,0.04,0.19,0.00,22.63,27.67,30.64,14.70,47.00,1021.01,2034.99,3531.97,3239.36,3515.40,600.00,599.37,6.51,0000 0000 0000 0000 000000
2015-10-07 09:58:08,0.01,0.19,0.00,22.66,27.67,30.64,14.58,46.93,1021.03,2034.99,3531.59,3239.00,3514.94,599.42,598.81,6.56,0000 0000 0000 0000 000000
2015-10-07 10:03:09,0.13,0.20,0.00,22.66,27.65,30.61,14.62,46.96,1021.04,2034.99,3528.47,3237.67,3513.32,599.97,599.10,6.61,0000 0000 0000 0000 000000
2015-10-07 10:08:11,0.12,0.20,0.00,22.62,27.65,30.60,14.55,46.98,1021.05,2034.99,3524.53,3235.79,3511.41,599.65,599.00,6.66,0000 0000 0000 0000 000000
2015-10-07 10:13:12,0.08,0.21,0.00,22.51,27.65,30.62,14.63,46.99,1021.14,2034.99,3521.79,3234.39,3510.02,600.14,599.80,6.71,0000 0000 0000 0000 000000
2015-10-07 10:18:13,0.02,0.21,0.00,22.55,27.63,30.61,14.56,46.98,1021.25,2035.00,3520.92,3234.00,3509.09,599.47,599.12,6.76,0000 0000 0000 0000 000000
2015-10-07 10:23:14,0.04,0.21,0.00,22.63,27.62,30.61,14.60,47.01,1021.37,2035.00,3520.08,3233.41,3508.64,600.05,599.69,6.81,0000 0000 0000 0000 000000
2015-10-07 10:28:15,0.02,0.22,0.00,22.57,27.62,30.59,14.66,47.06,1021.49,2035.00,3519.41,3233.00,3508.02,599.82,599.65,6.86,0000 0000 0000 0000 000000
2015-10-07 10:33:17,0.01,0.22,0.00,22.50,27.62,30.62,14.68,47.02,1021.50,2035.00,3518.92,3232.85,3507.86,600.18,600.02,6.91,0000 0000 0000 0000 000000
2015-10-07 10:38:18,0.04,0.22,0.00,22.44,27.62,30.61,14.71,47.08,1021.50,2035.01,3517.94,3232.08,3507.09,600.17,600.21,6.96,0000 0000 0000 0000 000000
2015-10-07 10:43:20,0.06,0.22,0.00,22.45,27.60,30.59,14.60,47.15,1021.50,2035.02,3516.33,3231.40,3506.30,599.73,599.82,7.01,0000 0000 0000 0000 000000
2015-10-07 10:48:21,0.05,0.22,0.00,22.45,27.60,30.60,14.63,47.09,1021.50,2035.02,3514.84,3230.61,3505.21,599.99,599.95,7.06,0000 0000 0000 0000 000000
2015-10-07 10:53:22,0.04,0.23,0.00,22.32,27.59,30.60,14.65,47.04,1021.50,2035.01,3513.55,3229.91,3504.50,599.95,600.22,7.11,0000 0000 0000 0000 000000
2015-10-07 10:58:24,0.05,0.23,0.00,22.41,27.57,30.59,14.79,47.08,1021.50,2035.01,3512.06,3229.08,3503.67,600.49,600.44,7.16,0000 0000 0000 0000 000000
2015-10-07 11:03:25,0.04,0.23,0.00,22.39,27.57,30.59,14.70,47.03,1021.50,2035.02,3510.89,3228.50,3503.00,600.20,600.27,7.21,0000 0000 0000 0000 000000
2015-10-07 11:08:26,0.03,0.23,0.00,22.26,27.56,30.60,14.68,47.09,1021.51,2035.05,3509.98,3228.01,3502.31,600.31,600.70,7.26,0000 0000 0000 0000 000000
2015-10-07 11:13:28,0.03,0.23,0.00,22.21,27.55,30.60,14.66,46.93,1021.51,2035.07,3509.17,3227.67,3501.99,599.91,600.42,7.31,0000 0000 0000 0000 000000
2015-10-07 11:18:29,0.04,0.24,0.00,22.18,27.54,30.59,14.64,47.12,1021.52,2035.17,3508.69,3227.10,3501.52,599.97,600.52,7.36,0000 0000 0000 0000 000000
2015-10-07 11:23:31,0.01,0.24,0.00,22.19,27.52,30.58,14.66,46.98,1021.54,2035.14,3507.82,3226.97,3500.99,599.82,600.37,7.41,0000 0000 0000 0000 000000
2015-10-07 11:28:32,0.05,0.24,0.00,22.13,27.52,30.57,14.62,47.10,1021.56,2035.22,3506.90,3226.25,3500.29,600.11,600.81,7.46,0000 0000 0000 0000 000000
2015-10-07 11:33:34,0.02,0.24,0.00,22.06,27.51,30.59,14.74,47.17,1021.59,2035.18,3505.96,3225.94,3499.90,600.45,601.26,7.51,0000 0000 0000 0000 000000
2015-10-07 11:38:35,0.06,0.24,0.00,22.03,27.50,30.58,14.78,47.11,1021.72,2035.33,3505.08,3225.19,3499.12,600.62,601.56,7.56,0000 0000 0000 0000 000000
2015-10-07 11:43:36,0.02,0.25,0.00,22.00,27.49,30.59,14.72,47.08,1021.77,2035.39,3504.48,3225.00,3498.87,599.84,600.92,7.61,0000 0000 0000 0000 000000
2015-10-07 11:48:38,0.06,0.25,0.00,21.91,27.47,30.63,14.73,47.09,1021.88,2035.73,3503.94,3224.83,3498.13,599.97,601.15,7.66,0000 0000 0000 0000 000000
2015-10-07 11:53:39,0.07,0.25,0.00,21.85,27.46,30.64,14.72,47.10,1021.93,2035.77,3502.42,3223.86,3497.50,599.89,601.34,7.71,0000 0000 0000 0000 000000
2015-10-07 11:58:40,0.12,0.26,0.00,21.78,27.45,30.69,14.77,47.15,1021.97,2035.76,3498.94,3222.22,3495.61,600.09,601.73,7.76,0000 0000 0000 0000 000000
2015-10-07 12:03:41,0.10,0.26,0.00,21.72,27.42,30.78,14.71,47.22,1021.99,2035.83,3496.23,3220.87,3494.12,600.11,601.84,7.81,0000 0000 0000 0000 000000
2015-10-07 12:08:43,0.13,0.27,0.00,21.92,27.42,30.63,14.77,47.20,1021.99,2035.95,3492.77,3219.25,3492.28,600.21,601.63,7.87,0000 0000 0000 0000 000000
2015-10-07 12:13:44,0.14,0.28,0.00,22.09,27.40,30.58,14.70,47.16,1021.99,2035.98,3488.86,3217.35,3490.29,600.22,601.30,7.92,0000 0000 0000 0000 000000
2015-10-07 12:18:45,0.16,0.28,0.00,21.91,27.40,30.62,14.69,47.11,1021.99,2035.99,3484.24,3215.22,3488.10,599.84,601.30,7.97,0000 0000 0000 0000 000000
2015-10-07 12:23:47,0.18,0.29,0.00,21.81,27.38,30.63,14.64,47.09,1021.99,2035.99,3479.24,3212.81,3485.43,599.79,601.42,8.02,0000 0000 0000 0000 000000
2015-10-07 12:28:48,0.19,0.30,0.00,21.71,27.36,30.68,14.73,47.31,1021.99,2035.98,3473.53,3210.11,3482.53,599.89,601.68,8.07,0000 0000 0000 0000 000000
2015-10-07 12:33:49,0.12,0.31,0.00,21.64,27.34,30.83,14.69,47.18,1021.99,2035.99,3469.76,3208.34,3480.57,599.86,601.95,8.12,0000 0000 0000 0000 000000
2015-10-07 12:38:50,0.11,0.31,0.00,21.60,27.32,30.87,14.85,47.27,1021.99,2035.99,3466.70,3206.79,3478.87,600.53,602.43,8.17,0000 0000 0000 0000 000000
2015-10-07 12:43:51,0.15,0.32,0.00,21.52,27.30,30.85,14.75,47.27,1021.97,2036.00,3462.61,3204.83,3476.67,599.91,602.06,8.22,0000 0000 0000 0000 000000
2015-10-07 12:48:53,0.18,0.33,0.00,21.48,27.28,30.80,14.79,47.27,1021.98,2036.01,3457.55,3202.40,3474.10,599.69,601.96,8.27,0000 0000 0000 0000 000000
2015-10-07 12:53:54,0.17,0.34,0.00,21.47,27.26,30.80,14.76,47.21,1021.98,2036.04,3452.69,3200.06,3471.58,600.12,602.39,8.32,0000 0000 0000 0000 000000
2015-10-07 12:58:55,0.15,0.35,0.00,21.41,27.23,30.79,14.74,47.30,1021.99,2036.11,3448.40,3198.04,3469.32,599.66,601.99,8.37,0000 0000 0000 0000 000000